Location: Campillo
(40.8621°N, 4.2488°W)
Time: 01:06:08
(UTC+00:00)

USA 308 - Pass Details

Date: 19 September 2021
Orbit: 566 x 573 km, 54.0° (Epoch: 23 September)

Event Time Altitude Azimuth Distance (km) Brightness Sun altitude
Rises 20:54:47 0° 305° (NW) 2,771 7.6 -28.9°
Reaches altitude 10° 20:58:02 10° 331° (NNW) 1,875 6.2 -29.5°
Maximum altitude 21:00:18 14° 3° (N) 1,632 5.5 -29.8°
Enters shadow 21:00:21 14° 4° (N) 1,633 5.5 -29.8°
